[[{"header":{"parameterUnit":"m.s-1","parameterCategory":1,"la1":30.2991,"la2":30.254,"lo1":-89.0895,"lo2":-89.0444,"dy":0.0017,"dx":0.0017,"nx":28,"ny":28,"refTime":"2024-08-11T09:00:00:Z","depth":0,"parameterNumber":2,"parameterNumberName":"U-component_of_WINDS"},"data":[0,0,0,0,0,0,0,0,0,0,0,0,0,0,0,0,0,0,0,0,0,0,0,0,0,0,0,0,0,0,0,0,0,0,0,0,0,0,0,0,0,0,0,0,0,0,0,0,0,0,0,0,0,0,0,0,0,0,2.4304,2.4305,0,2.4351,2.4351,2.4352,2.4352,2.4351,2.4351,2.435,2.4399,2.4401,2.4403,0,0,0,0,0,0,0,0,0,0,0,0,0,2.4217,2.4219,2.4304,2.4305,2.4305,2.4351,2.4351,2.4352,2.4352,2.4351,2.435,2.435,2.4398,2.44,2.4403,0,0,0,0,0,0,0,0,0,0,0,0,0,2.4258,2.4219,2.4304,2.4311,2.4312,2.4351,2.4352,2.4352,2.4352,2.4351,2.435,2.4349,2.4398,2.44,2.4403,2.4439,0,0,2.4412,2.4413,0,0,0,0,0,0,0,0,2.4256,2.4262,2.4309,2.431,2.4312,2.4345,2.4339,2.4381,2.4352,2.4337,2.435,2.4349,2.4382,2.4386,2.4397,2.4441,2.4443,2.4412,2.4414,2.4415,2.4416,0,0,0,0,0,0,0,2.4253,2.426,2.4323,2.431,2.4311,2.4312,2.4317,2.4347,2.4364,2.4338,2.4338,2.4344,2.4382,2.4394,2.4398,2.4444,2.4412,2.4414,2.4416,2.4417,2.4522,2.4523,0,0,0,0,0,0,2.4249,2.4257,2.4321,2.4324,2.4281,2.4314,2.432,2.4335,2.4364,2.4367,2.4344,2.4344,2.4389,2.4394,2.4399,2.4444,2.4415,2.4417,2.4419,2.4521,2.4522,2.4523,0,0,0,0,0,0,2.4247,2.4254,2.4319,2.4291,2.4299,2.4317,2.4334,2.4336,2.4348,2.4368,2.4371,2.4353,2.4389,2.4395,2.4429,2.4446,2.4419,2.4421,2.4519,2.4521,2.4523,2.4533,0,0,0,0,0,0,2.4244,2.4254,2.4267,2.4291,2.4301,2.4348,2.4335,2.4338,2.4353,2.4352,2.4377,2.4381,2.4389,2.4425,2.4432,2.4449,2.4423,2.4518,2.452,2.4522,2.4531,2.4535,2.4538,0,0,0,0,0,2.4241,2.4268,2.4268,2.4275,2.4317,2.4349,2.4354,2.4363,2.4354,2.4368,2.4381,2.438,2.4443,2.4428,2.4436,2.4454,2.4517,2.4519,2.4522,2.453,2.4534,2.4538,0,0,0,0,0,0,2.4245,2.4271,2.4271,2.4306,2.4325,2.4349,2.4366,2.4367,2.4389,2.4387,2.4398,2.4403,2.4437,2.4449,2.4433,2.4491,2.4479,2.4483,2.4482,2.4486,2.449,2.4486,2.4426,0,0,0,0,0,2.425,2.4273,2.4295,2.4324,2.4333,2.4348,2.4362,2.4367,2.4388,2.4396,2.4411,2.4431,2.4456,2.4472,2.4495,2.4533,2.4539,2.455,2.4553,2.4555,2.4559,2.4581,2.4586,2.4531,2.4531,2.4531,0,0,2.4261,2.4278,2.4292,2.4325,2.434,2.4365,2.4355,2.4381,2.4399,2.44,2.4433,2.4445,2.4468,2.4505,2.4521,2.4516,2.4576,2.4558,2.456,2.4563,2.4584,2.4589,2.4594,2.4533,2.4533,2.4532,0,0,2.4293,2.4307,2.4334,2.435,2.4373,2.4383,2.4389,2.4413,2.4421,2.4454,2.4456,2.4478,2.452,2.4536,2.4551,2.459,2.459,2.4598,2.4615,2.4636,2.464,2.4644,2.4659,2.4665,2.4601,2.4601,2.4601,0,2.4303,2.4339,2.4347,2.4374,2.4389,2.439,2.4418,2.4433,2.4463,2.4474,2.4467,2.452,2.4536,2.4576,2.4586,2.4597,2.4606,2.4595,2.4639,2.4643,2.4647,2.4661,2.4667,2.4602,2.4602,2.4602,2.4602,0,2.4351,2.4376,2.4395,2.4424,2.4441,2.4468,2.4481,2.4497,2.4501,2.4512,2.4547,2.4566,2.4594,2.4604,2.4608,2.4646,2.4642,2.4637,2.4625,2.4653,2.4667,2.4672,2.4603,2.4603,2.4602,2.4602,0,0,2.4386,2.442,2.4427,2.4441,2.4467,2.4487,2.4514,2.4542,2.4556,2.4577,2.4601,2.4637,2.4633,2.4649,2.4655,2.4673,2.4705,2.4667,2.4667,2.4674,2.4749,2.4753,2.4759,2.4705,2.4706,2.4707,2.4747,0,2.4421,2.4469,2.4478,2.452,2.4544,2.4547,2.4571,2.459,2.4601,2.4624,2.4636,2.4662,2.4654,2.4664,2.4683,2.4697,2.472,2.4694,2.4728,2.4729,2.4722,2.4766,2.477,2.4807,2.4753,2.4754,2.4754,0,2.4469,2.4491,2.4536,2.456,2.457,2.4592,2.4618,2.4639,2.4662,2.4669,2.4687,2.4691,2.4721,2.4707,2.4748,2.473,2.4745,2.4754,2.4756,2.4759,2.4744,2.4772,2.4819,2.4825,2.4763,2.4762,2.4762,0,2.4491,2.4532,2.4565,2.4576,2.4605,2.462,2.4633,2.4655,2.4671,2.4694,2.4705,2.4731,2.4746,2.4767,2.4778,2.4767,2.4819,2.4806,2.4826,2.4826,2.4837,2.4837,2.4888,2.4846,2.4846,2.4846,2.4846,0,2.453,2.4557,2.4575,2.4595,2.4626,2.4636,2.4667,2.468,2.4699,2.4722,2.4726,2.4748,2.4762,2.4786,2.4795,2.4828,2.4835,2.4842,2.4844,2.4842,2.4841,2.4852,2.485,2.4847,2.4847,2.4847,2.4846,0,2.456,2.4573,2.4609,2.4633,2.464,2.4662,2.4684,2.4704,2.4715,2.4744,2.4752,2.477,2.4799,2.4812,2.4847,2.4854,2.4892,2.4892,2.4884,2.4885,2.4905,2.4903,2.4966,2.4975,2.4926,2.4926,2.4927,0,2.4584,2.4605,2.4632,2.4648,2.4661,2.4686,2.4703,2.4714,2.4732,2.476,2.4777,2.4805,2.4829,2.4874,2.4891,2.4918,2.492,2.494,2.4924,2.4921,2.4921,2.492,2.4923,2.4943,2.4943,2.4944,2.4944,0,2.4626,2.4631,2.4655,2.4682,2.4701,2.4723,2.4744,2.4756,2.4771,2.4791,2.482,2.4838,2.4874,2.4903,2.4932,2.4946,2.4948,2.4949,2.4955,2.4953,2.4948,2.4952,2.4893,2.4948,2.4947,2.4947,2.4947,2.4947,2.4654,2.4674,2.4696,2.4723,2.474,2.476,2.478,2.4794,2.4818,2.4849,2.4854,2.4885,2.4908,2.4947,2.4962,2.4987,2.4983,2.4992,2.4994,2.4996,2.4998,2.4944,2.4993,2.4993,2.4992,2.4992,2.4992,0,2.4697,2.4712,2.4736,2.4765,2.4787,2.4786,2.481,2.4828,2.4855,2.4876,2.49,2.4934,2.4962,2.4981,2.501,2.5026,2.5028,2.5034,2.5033,2.5036,2.5,2.4992,2.5032,2.5032,2.5032,2.5032,2.5032,2.5032,2.4722,2.4755,2.4763,2.4805,2.482,2.485,2.4864,2.4883,2.49,2.4937,2.4961,2.4973,2.4994,2.5024,2.5051,2.5056,2.5067,2.5072,2.5077,2.5043,2.5039,2.5035,2.5027,2.5074,2.5074,2.5112,2.5112,2.5112]},{"header":{"parameterUnit":"m.s-1","parameterCategory":1,"la1":30.2991,"la2":30.254,"lo1":-89.0895,"lo2":-89.0444,"dy":0.0017,"dx":0.0017,"nx":28,"ny":28,"refTime":"2024-08-11T09:00:00:Z","depth":0,"parameterNumber":3,"parameterNumberName":"V-component_of_WINDS"},"data":[0,0,0,0,0,0,0,0,0,0,0,0,0,0,0,0,0,0,0,0,0,0,0,0,0,0,0,0,0,0,0,0,0,0,0,0,0,0,0,0,0,0,0,0,0,0,0,0,0,0,0,0,0,0,0,0,0,0,-0.5518,-0.5518,0,-0.5559,-0.556,-0.556,-0.5571,-0.5571,-0.5571,-0.5571,-0.5613,-0.5614,-0.5616,0,0,0,0,0,0,0,0,0,0,0,0,0,-0.5449,-0.545,-0.5518,-0.5518,-0.5519,-0.5559,-0.556,-0.556,-0.5572,-0.5571,-0.5571,-0.5571,-0.5612,-0.5614,-0.5616,0,0,0,0,0,0,0,0,0,0,0,0,0,-0.5483,-0.545,-0.5518,-0.5529,-0.5531,-0.5559,-0.556,-0.556,-0.5572,-0.5571,-0.5571,-0.5571,-0.5612,-0.5614,-0.5616,-0.5636,0,0,-0.5622,-0.5623,0,0,0,0,0,0,0,0,-0.5481,-0.5486,-0.5527,-0.5528,-0.553,-0.556,-0.5551,-0.5586,-0.5572,-0.5556,-0.5571,-0.557,-0.5595,-0.5599,-0.5607,-0.5637,-0.5639,-0.5622,-0.5623,-0.5624,-0.5625,0,0,0,0,0,0,0,-0.5479,-0.5484,-0.5534,-0.5528,-0.553,-0.5533,-0.5537,-0.5558,-0.5577,-0.5557,-0.5558,-0.5563,-0.5596,-0.5605,-0.5608,-0.564,-0.5622,-0.5624,-0.5625,-0.5626,-0.569,-0.5691,0,0,0,0,0,0,-0.5475,-0.5482,-0.5533,-0.5535,-0.5504,-0.5534,-0.5539,-0.5551,-0.5577,-0.5581,-0.5563,-0.5563,-0.5602,-0.5606,-0.561,-0.5636,-0.5624,-0.5626,-0.5627,-0.569,-0.569,-0.5691,0,0,0,0,0,0,-0.5473,-0.5479,-0.5531,-0.5509,-0.5516,-0.5536,-0.5549,-0.5552,-0.5561,-0.5582,-0.5585,-0.5569,-0.5602,-0.5607,-0.563,-0.5638,-0.5627,-0.5629,-0.5689,-0.569,-0.569,-0.5687,0,0,0,0,0,0,-0.5471,-0.5478,-0.5486,-0.5509,-0.5517,-0.555,-0.5549,-0.5553,-0.5564,-0.5565,-0.5588,-0.5591,-0.5602,-0.5626,-0.5632,-0.564,-0.563,-0.5688,-0.5689,-0.569,-0.5687,-0.5688,-0.5689,0,0,0,0,0,-0.5469,-0.5483,-0.5486,-0.5492,-0.5527,-0.555,-0.5555,-0.5567,-0.5565,-0.5573,-0.5586,-0.5591,-0.5636,-0.5629,-0.5634,-0.5644,-0.5688,-0.5689,-0.569,-0.5686,-0.5688,-0.5689,0,0,0,0,0,0,-0.5459,-0.5486,-0.549,-0.5512,-0.5529,-0.5552,-0.5562,-0.5568,-0.5585,-0.5585,-0.5599,-0.5604,-0.5626,-0.5637,-0.5629,-0.5665,-0.5662,-0.5664,-0.5657,-0.5659,-0.5659,-0.5657,-0.5632,0,0,0,0,0,-0.546,-0.5477,-0.5499,-0.5516,-0.5525,-0.5542,-0.5553,-0.5561,-0.5579,-0.5586,-0.5601,-0.5618,-0.5636,-0.5648,-0.5666,-0.5688,-0.5694,-0.5698,-0.5699,-0.5699,-0.5701,-0.5716,-0.5718,-0.5694,-0.5694,-0.5694,0,0,-0.5461,-0.5478,-0.5487,-0.5515,-0.5529,-0.5547,-0.5548,-0.5566,-0.5579,-0.5588,-0.5611,-0.5623,-0.5643,-0.5666,-0.5677,-0.5676,-0.5709,-0.5701,-0.5701,-0.5703,-0.5717,-0.5719,-0.5721,-0.5695,-0.5695,-0.5695,0,0,-0.5473,-0.5487,-0.5503,-0.5518,-0.5539,-0.5551,-0.5555,-0.5577,-0.5586,-0.5609,-0.5616,-0.5632,-0.5663,-0.5678,-0.5689,-0.5708,-0.5713,-0.5713,-0.5718,-0.5732,-0.5734,-0.5736,-0.5744,-0.5746,-0.5715,-0.5715,-0.5715,0,-0.5471,-0.5498,-0.5511,-0.5529,-0.5542,-0.5552,-0.5569,-0.5582,-0.5608,-0.5617,-0.5615,-0.5655,-0.5669,-0.5697,-0.5701,-0.571,-0.5716,-0.5711,-0.5733,-0.5735,-0.5736,-0.5744,-0.5747,-0.5715,-0.5715,-0.5715,-0.5715,0,-0.5496,-0.5515,-0.5526,-0.5551,-0.5565,-0.5583,-0.5599,-0.5611,-0.5619,-0.5631,-0.5654,-0.5672,-0.5694,-0.5701,-0.5708,-0.573,-0.5729,-0.573,-0.5727,-0.5738,-0.5746,-0.5749,-0.5715,-0.5715,-0.5715,-0.5715,0,0,-0.5502,-0.5536,-0.554,-0.5552,-0.5577,-0.5592,-0.5611,-0.5633,-0.5644,-0.5661,-0.5678,-0.5705,-0.5706,-0.5719,-0.5728,-0.574,-0.5755,-0.574,-0.574,-0.5743,-0.5782,-0.5782,-0.5785,-0.5759,-0.5759,-0.576,-0.5781,0,-0.5518,-0.5551,-0.5564,-0.5592,-0.561,-0.562,-0.5637,-0.5654,-0.5666,-0.5683,-0.5697,-0.5716,-0.5716,-0.5724,-0.5736,-0.5751,-0.5763,-0.5749,-0.5775,-0.5776,-0.577,-0.5788,-0.5788,-0.5806,-0.5783,-0.5784,-0.5784,0,-0.554,-0.5559,-0.5588,-0.5613,-0.5621,-0.5635,-0.5657,-0.5673,-0.5694,-0.5702,-0.5717,-0.5726,-0.5746,-0.5742,-0.5771,-0.5762,-0.5773,-0.5782,-0.5783,-0.5786,-0.5781,-0.5793,-0.5813,-0.5816,-0.5789,-0.5788,-0.5788,0,-0.5542,-0.5575,-0.5598,-0.5608,-0.5636,-0.5647,-0.5659,-0.5679,-0.5692,-0.5712,-0.5721,-0.5742,-0.5754,-0.577,-0.5785,-0.578,-0.5813,-0.581,-0.5821,-0.5821,-0.5828,-0.5827,-0.585,-0.5834,-0.5834,-0.5834,-0.5833,0,-0.5558,-0.5576,-0.56,-0.5613,-0.5634,-0.565,-0.567,-0.5683,-0.5701,-0.5718,-0.5728,-0.5744,-0.5761,-0.578,-0.5791,-0.5814,-0.5819,-0.5827,-0.583,-0.5826,-0.5826,-0.5834,-0.5834,-0.5834,-0.5834,-0.5834,-0.5834,0,-0.5565,-0.5581,-0.5606,-0.5632,-0.5639,-0.5653,-0.5675,-0.5689,-0.5702,-0.5724,-0.573,-0.575,-0.5772,-0.5788,-0.5817,-0.5824,-0.585,-0.5852,-0.5843,-0.5845,-0.5855,-0.5854,-0.5885,-0.5891,-0.587,-0.587,-0.587,0,-0.5574,-0.5588,-0.5616,-0.5628,-0.5641,-0.566,-0.5674,-0.569,-0.5704,-0.5729,-0.5741,-0.5764,-0.5783,-0.5818,-0.5836,-0.5858,-0.5861,-0.5871,-0.5865,-0.5861,-0.5863,-0.5862,-0.5864,-0.5872,-0.5872,-0.5872,-0.5872,0,-0.5589,-0.5597,-0.5617,-0.564,-0.5656,-0.5674,-0.5693,-0.5703,-0.5722,-0.5737,-0.5761,-0.5776,-0.5805,-0.5828,-0.5853,-0.5866,-0.5873,-0.5874,-0.5878,-0.5875,-0.5869,-0.5874,-0.5846,-0.5873,-0.5873,-0.5873,-0.5873,-0.5873,-0.5598,-0.5612,-0.5634,-0.5656,-0.5672,-0.569,-0.5705,-0.572,-0.574,-0.5766,-0.5774,-0.5798,-0.582,-0.5853,-0.5867,-0.5886,-0.5886,-0.5891,-0.5893,-0.5894,-0.5894,-0.5866,-0.589,-0.589,-0.589,-0.589,-0.589,0,-0.5615,-0.563,-0.565,-0.5676,-0.5694,-0.5699,-0.5721,-0.5735,-0.5756,-0.5776,-0.5795,-0.5823,-0.5846,-0.5865,-0.5889,-0.5901,-0.5905,-0.5907,-0.5907,-0.591,-0.5893,-0.5888,-0.5904,-0.5904,-0.5904,-0.5904,-0.5904,-0.5904,-0.5626,-0.565,-0.566,-0.5693,-0.5708,-0.5732,-0.5744,-0.5761,-0.5777,-0.5807,-0.5827,-0.584,-0.586,-0.5885,-0.5907,-0.5912,-0.5921,-0.5922,-0.5929,-0.5912,-0.5911,-0.5909,-0.5905,-0.5924,-0.5924,-0.5944,-0.5944,-0.5944]}]]